Starlink 31226

operational
NORAD ID: 58858 Int'l Des: 2024-019 Owner: SPXS Country: US Constellation: starlink
LEOCIRCULAR

About Starlink 31226

Description loading...

Live Position

Loading 3D Globe...

Upcoming Passes

Altitude History

Altitude vs Time

uPlot chart will show altitude changes over time

Two-Line Element Set

1 58858U 24019F 25259.97632257 -.00002784 00000-0 -91711-4 0 9990
2 58858 43.0007 150.0968 0001795 266.6785 93.3862 15.27569489 92515
Epoch: Sep 16, 2025 • Age: 22 hours

Current Status

Altitude 486.4 km
Velocity 7.63 km/s
Sub-Earth Point 38.41°N, 58.52°W
Launch Date Jan 29, 2024
Age 1.6 years
Type internet

Technical Details

Classification Payload
Mass 730.00 kg
Dry Mass 700.00 kg
Total Mass 730.00 kg
Length 0.30 m
Diameter 4.10 m
Span 29.00 m
Shape Box + pan
Manufacturer SPXS
Bus Type Starlink V2M
Phase Status In Orbit
Owner/State SPXS/US

Large Constellations

Loading constellations...